{"data":{"norad_id":67151,"epoch":"2026-09-20T08:16:33.875328Z","epoch_age_seconds":119446,"freshness":"FRESH","line1":"1 67151U 25301U   26263.34483652 -.00000172  00000+0  64209-5 0  9991","line2":"2 67151  51.9023 287.3489 0000419  74.8234 285.2775 14.79927395 42542","mean_motion":14.79927395,"eccentricity":4.19e-5,"inclination_deg":51.9023,"raan_deg":287.3489,"arg_perigee_deg":74.8234,"mean_anomaly_deg":285.2775,"bstar":6.4209e-6,"rev_number":4254,"period_min":97.302070687056,"perigee_km":629.25970060239,"apogee_km":629.84694505144,"semimajor_km":7007.6903228269,"source":"CELESTRAK","updated_at":"2026-09-21T09:00:16.459359Z"}}